Franklin, PA

5:31 AM EDT on May 26, 2018 (GMT -0400)
Venango Regional

Weather History for KFKL - March, 2014

Change the Weather History Date:

Sunday, March 9, 2014

  Actual Average Record
Temperature  
Mean Temperature 25 °F -  
Max Temperature 35 °F 43 °F 73 °F (1987)
Min Temperature 15 °F 21 °F -4 °F (1960)
Degree Days  
Heating Degree Days 40    
Moisture  
Dew Point 16 °F    
Average Humidity 66    
Maximum Humidity 80    
Minimum Humidity 48    
Precipitation  
Precipitation 0.01 in - - ()
Sea Level Pressure  
Sea Level Pressure 30.05 in    
Wind  
Wind Speed 7 mph (West)    
Max Wind Speed 14 mph    
Max Gust Speed 20 mph    
Visibility 10 miles    
Events      
Averages and records for this station are not official NWS values.
T = Trace of Precipitation, MM = Missing Value Source: NWS Daily Summary

Daily Weather History Graph

Daily Weather History Graph

Search for Another Location

Airport or City:

Astronomy

Mar. 09, 2014 Rise Set
Actual Time 7:41 AM EDT 7:19 PM EDT
Civil Twilight 7:13 AM EDT 7:46 PM EDT
Nautical Twilight 6:41 AM EDT 8:19 PM EDT
Astronomical Twilight 6:09 AM EDT 8:51 PM EDT
Moon 1:07 PM EDT (3/9) 3:08 AM EDT (3/9)
Length of Visible Light 12h 33m
Length of Day
11h 38m
First Quarter, 61% of the Moon is Illuminated
Mar 9
First Quarter
Mar 16
Full
Mar 23
Last Quarter
Mar 30
New
Apr 7
First Quarter

Hourly Weather History & Observations

Time (EDT) Temp. Windchill Dew Point Humidity Pressure Visibility Wind Dir Wind Speed Gust Speed Precip Events Conditions
12:15 AM 21.2 °F 13.6 °F 15.8 °F 80% 30.04 in 10.0 mi NW 5.8 mph - N/A   Overcast
12:35 AM 21.2 °F 12.6 °F 15.8 °F 80% 30.04 in 10.0 mi NNW 6.9 mph - N/A   Overcast
12:55 AM 21.2 °F 12.6 °F 15.8 °F 80% 30.04 in 10.0 mi NW 6.9 mph - N/A   Overcast
1:15 AM 21.2 °F 13.6 °F 15.8 °F 80% 30.05 in 10.0 mi NW 5.8 mph - N/A   Overcast
1:35 AM 21.2 °F 10.9 °F 15.8 °F 80% 30.05 in 10.0 mi NNW 9.2 mph - N/A   Overcast
1:55 AM 19.4 °F 10.4 °F 14.0 °F 80% 30.06 in 10.0 mi NNW 6.9 mph - N/A   Overcast
3:15 AM 19.4 °F 11.5 °F 14.0 °F 80% 30.06 in 10.0 mi NW 5.8 mph - N/A   Overcast
3:35 AM 19.4 °F 12.8 °F 14.0 °F 80% 30.06 in 10.0 mi NW 4.6 mph - N/A   Overcast
3:55 AM 19.4 °F 9.5 °F 14.0 °F 80% 30.06 in 10.0 mi NW 8.1 mph - N/A   Overcast
4:15 AM 19.4 °F 11.5 °F 14.0 °F 80% 30.07 in 10.0 mi NW 5.8 mph - N/A   Overcast
4:35 AM 19.4 °F 10.4 °F 12.2 °F 74% 30.07 in 10.0 mi NW 6.9 mph - N/A   Overcast
4:55 AM 19.4 °F 14.3 °F 12.2 °F 74% 30.08 in 10.0 mi NNW 3.5 mph - N/A   Overcast
5:15 AM 19.4 °F 10.4 °F 12.2 °F 74% 30.09 in 10.0 mi NW 6.9 mph - N/A   Overcast
5:35 AM 19.4 °F 9.5 °F 12.2 °F 74% 30.09 in 10.0 mi NW 8.1 mph - N/A   Overcast
5:55 AM 19.4 °F - 12.2 °F 74% 30.09 in 10.0 mi Calm Calm - N/A   Overcast
6:15 AM 17.6 °F - 12.2 °F 79% 30.09 in 10.0 mi Calm Calm - N/A   Overcast
6:35 AM 17.6 °F 12.3 °F 10.4 °F 73% 30.09 in 10.0 mi West 3.5 mph - N/A   Mostly Cloudy
6:55 AM 15.8 °F - 8.6 °F 73% 30.10 in 10.0 mi Calm Calm - N/A   Scattered Clouds
7:15 AM 15.8 °F 8.6 °F 8.6 °F 73% 30.11 in 10.0 mi West 4.6 mph - N/A   Partly Cloudy
7:35 AM 15.8 °F 10.2 °F 10.4 °F 79% 30.12 in 10.0 mi West 3.5 mph - N/A   Partly Cloudy
7:55 AM 15.8 °F 8.6 °F 10.4 °F 79% 30.13 in 10.0 mi WSW 4.6 mph - N/A   Mostly Cloudy
8:15 AM 15.8 °F 8.6 °F 10.4 °F 79% 30.13 in 10.0 mi SW 4.6 mph - N/A   Scattered Clouds
8:35 AM 17.6 °F 9.3 °F 12.2 °F 79% 30.14 in 10.0 mi WSW 5.8 mph - N/A   Clear
8:55 AM 17.6 °F 8.2 °F 10.4 °F 73% 30.14 in 10.0 mi WSW 6.9 mph - N/A   Mostly Cloudy
9:15 AM 17.6 °F 8.2 °F 12.2 °F 79% 30.15 in 10.0 mi WSW 6.9 mph - N/A   Overcast
9:35 AM 19.4 °F 12.8 °F 12.2 °F 74% 30.15 in 10.0 mi SW 4.6 mph - N/A   Mostly Cloudy
9:55 AM 19.4 °F 12.8 °F 14.0 °F 80% 30.17 in 10.0 mi West 4.6 mph - N/A   Overcast
10:15 AM 21.2 °F 13.6 °F 12.2 °F 68% 30.16 in 10.0 mi WSW 5.8 mph - N/A   Overcast
10:35 AM 21.2 °F 11.7 °F 12.2 °F 68% 30.17 in 10.0 mi West 8.1 mph - N/A   Overcast
10:55 AM 21.2 °F 12.6 °F 14.0 °F 74% 30.17 in 10.0 mi West 6.9 mph - N/A   Overcast
11:15 AM 23.0 °F 13.1 °F 15.8 °F 74% 30.17 in 10.0 mi WSW 9.2 mph - N/A   Overcast
11:35 AM 24.8 °F 16.1 °F 15.8 °F 69% 30.16 in 10.0 mi West 8.1 mph - N/A   Overcast
11:55 AM 24.8 °F 14.6 °F 17.6 °F 74% 30.16 in 10.0 mi West 10.4 mph - N/A   Overcast
12:15 PM 26.6 °F 16.2 °F 17.6 °F 69% 30.15 in 10.0 mi WSW 11.5 mph - N/A   Overcast
12:35 PM 26.6 °F 16.8 °F 17.6 °F 69% 30.14 in 10.0 mi West 10.4 mph 16.1 mph N/A   Overcast
12:55 PM 26.6 °F 16.8 °F 17.6 °F 69% 30.13 in 10.0 mi West 10.4 mph 17.3 mph N/A   Mostly Cloudy
1:15 PM 28.4 °F 17.5 °F 17.6 °F 64% 30.13 in 10.0 mi West 13.8 mph 17.3 mph N/A   Mostly Cloudy
1:35 PM 28.4 °F 19.1 °F 17.6 °F 64% 30.12 in 10.0 mi SW 10.4 mph - N/A   Mostly Cloudy
1:55 PM 28.4 °F 19.7 °F 17.6 °F 64% 30.10 in 10.0 mi WSW 9.2 mph - N/A   Mostly Cloudy
2:15 PM 30.2 °F 20.2 °F 19.4 °F 64% 30.09 in 10.0 mi West 12.7 mph 18.4 mph N/A   Mostly Cloudy
2:35 PM 30.2 °F 22.6 °F 19.4 °F 64% 30.08 in 10.0 mi WSW 8.1 mph 16.1 mph N/A   Scattered Clouds
2:55 PM 33.8 °F 26.4 °F 19.4 °F 56% 30.07 in 10.0 mi West 9.2 mph - N/A   Scattered Clouds
3:15 PM 33.8 °F 25.8 °F 19.4 °F 56% 30.07 in 10.0 mi West 10.4 mph 19.6 mph 0.01 in   Mostly Cloudy
3:35 PM 33.8 °F 26.4 °F 17.6 °F 52% 30.06 in 10.0 mi West 9.2 mph - 0.01 in   Mostly Cloudy
3:55 PM 33.8 °F 27.0 °F 17.6 °F 52% 30.05 in 10.0 mi WNW 8.1 mph - 0.01 in   Scattered Clouds
4:15 PM 33.8 °F 25.8 °F 17.6 °F 52% 30.05 in 10.0 mi WNW 10.4 mph 19.6 mph N/A   Partly Cloudy
4:35 PM 35.6 °F 27.5 °F 17.6 °F 48% 30.04 in 10.0 mi West 11.5 mph 18.4 mph N/A   Partly Cloudy
4:55 PM 33.8 °F 24.8 °F 17.6 °F 52% 30.03 in 10.0 mi West 12.7 mph 18.4 mph N/A   Partly Cloudy
5:15 PM 33.8 °F 26.4 °F 15.8 °F 48% 30.03 in 10.0 mi West 9.2 mph 19.6 mph N/A   Clear
5:35 PM 35.6 °F 28.0 °F 17.6 °F 48% 30.02 in 10.0 mi WSW 10.4 mph - N/A   Clear
5:55 PM 33.8 °F 25.8 °F 15.8 °F 48% 30.02 in 10.0 mi WSW 10.4 mph - N/A   Clear
6:15 PM 33.8 °F 26.4 °F 15.8 °F 48% 30.01 in 10.0 mi West 9.2 mph - N/A   Clear
6:35 PM 33.8 °F 27.7 °F 15.8 °F 48% 30.01 in 10.0 mi WSW 6.9 mph - N/A   Clear
6:55 PM 33.8 °F 27.7 °F 15.8 °F 48% 30.00 in 10.0 mi WSW 6.9 mph - N/A   Scattered Clouds
7:15 PM 33.8 °F 27.7 °F 17.6 °F 52% 30.01 in 10.0 mi SW 6.9 mph - N/A   Scattered Clouds
7:35 PM 33.8 °F 28.6 °F 17.6 °F 52% 30.01 in 10.0 mi SW 5.8 mph - N/A   Scattered Clouds
7:55 PM 32.0 °F 24.8 °F 15.8 °F 51% 30.00 in 10.0 mi SW 8.1 mph - N/A   Scattered Clouds
8:15 PM 30.2 °F 24.3 °F 17.6 °F 60% 29.99 in 10.0 mi SSW 5.8 mph - N/A   Partly Cloudy
8:35 PM 30.2 °F 21.3 °F 17.6 °F 60% 29.97 in 10.0 mi South 10.4 mph - N/A   Scattered Clouds
8:55 PM 30.2 °F 23.4 °F 17.6 °F 60% 29.97 in 10.0 mi SSW 6.9 mph - N/A   Mostly Cloudy
9:15 PM 30.2 °F 22.6 °F 17.6 °F 60% 29.97 in 10.0 mi SSW 8.1 mph - N/A   Scattered Clouds
9:35 PM 30.2 °F 21.9 °F 17.6 °F 60% 29.96 in 10.0 mi SW 9.2 mph - N/A   Mostly Cloudy
9:55 PM 30.2 °F 21.9 °F 17.6 °F 60% 29.95 in 10.0 mi SSW 9.2 mph - N/A   Mostly Cloudy
10:15 PM 32.0 °F 24.2 °F 17.6 °F 55% 29.94 in 10.0 mi SW 9.2 mph - N/A   Overcast
10:35 PM 32.0 °F 23.6 °F 17.6 °F 55% 29.93 in 10.0 mi SW 10.4 mph - N/A   Overcast
10:55 PM 32.0 °F 23.6 °F 17.6 °F 55% 29.93 in 10.0 mi SW 10.4 mph - N/A   Mostly Cloudy
11:15 PM 33.8 °F 25.8 °F 19.4 °F 56% 29.92 in 10.0 mi SW 10.4 mph - N/A   Mostly Cloudy
11:35 PM 33.8 °F 25.3 °F 19.4 °F 56% 29.91 in 10.0 mi SW 11.5 mph - N/A   Partly Cloudy
11:55 PM 33.8 °F 25.3 °F 19.4 °F 56% 29.90 in 10.0 mi SW 11.5 mph 18.4 mph N/A   Scattered Clouds
12:15 AM 33.8 °F 25.8 °F 19.4 °F 56% 29.89 in 10.0 mi SW 10.4 mph - N/A   Mostly Cloudy
12:35 AM 33.8 °F 24.8 °F 19.4 °F 56% 29.88 in 10.0 mi SW 12.7 mph 18.4 mph N/A   Scattered Clouds
12:55 AM 33.8 °F 24.8 °F 19.4 °F 56% 29.87 in 10.0 mi SW 12.7 mph - N/A   Scattered Clouds